STARLINK-34327, 64208

Orbit data source: Space-Track

STARLINK-34327, 64208 is a payload satellite owned by SpaceX/Seattle (US) in LEO that was launched on Sat, 31 May 2025 UTC via an FALCON 9 launch vehicle from the Air Force Western Test Range (AFWTR). Payload-class satellites include a variety of spacecraft equipped with specific instruments for various scientific and technological missions. These include communications satellites like Starlink; space stations such as the ISS; scientific satellites like the Hubble; Earth observation satellites from companies like Planet Labs, Umbra, and HawkEye 360; GPS; miniature CubeSats for education and research; and military/defense satellites.

Loading next visibility...
Identifier
64208, 2025-117F
Orbit
LEO
Country
Flag of USUS
Related business
Manufacturer
SpaceX/Seattle
Mission
Operational Commercial Communications
Bus & Motor
STARLINK V2MO, Unknown motor
Mass
575 kg wet, ~530 kg dry
Launch date (UTC)
2025-05-31 (1 year ago)
Launch vehicle
FALCON 9
Launch site
Air Force Western Test Range (AFWTR)
Object type
Payload
Rocket body
Debris
Shape & HBR
Box + 1 Pan, 17.7 m
Radar Cross Section
41.120 m², Large (>1 m²)

Expand to show TLE details & history
Last TLE update: 9 hours ago

TLE from 9 hours ago
0 STARLINK-34327
1 64208U 25117F   26235.91668981 -.00024355  00000-0 -71200-3 0  9996
2 64208  53.1594 342.5491 0001333  91.5671 253.3169 15.34399494  5865
Epoch: 2026-08-23T22:00Z
TLE epoch observation values (Epoch: 2026-08-23T22:00:01.999Z)
Latitude
-12.20664°
Longitude
31.0597°
Altitude
466.247 km
Speed
7.634 km/s
True Right ascension
22h 13m 05s
True Declination
-12° 07' 58"
Sunlit
Object was in full shadow at epoch
Visualization orbit readout
Latitude
Unknown
Longitude
Unknown
Altitude
Unknown
Speed
Unknown
Apparent Right ascension
Unknown
Apparent Declination
Unknown
Sunlit
N/A
Visualization observer readout
Local Sidereal Time
21:42:49
Azimuth
Unknown
Elevation
Unknown
Doppler factor
Unknown
Orbital elements
Apogee altitude
463.874 km
Perigee altitude
462.05 km
Semi-major axis
6,841.099 km
Eccentricity
0.00013
Inclination
53.1594°
RAAN
342.5491°
Arg. of periapsis
91.5671°
True anomaly
253.30227°
Mean anomaly
253.3169°
Eccentric anomaly
253.30958°
Mean motion
3.83579 °/min
Orbital period
93.85 mins
BSTAR
-0.000712
Loading maneuver chart data...
Computing Atmospheric mass density...
Loading historical data...
Loading historical data...
Loading historical data...
Loading historical data...
Loading historical data...
Loading historical data...
Loading historical data...

Documentation

Showing up to 5 results
|